User: anonymous   Login
Location: Unspecified
(0.0000°N, 0.0000°E)
Time: 11:59:45
(UTC+00:00)
Language:

USA 274 - Orbit

View from above orbital plane
View from above orbital plane
View from above satellite
View from above satellite

Ground track
Ground track

The orbit data is extracted from the following two-line orbital elements,

1 42058U 17011A   17288.79145321 0.00000000  00000-0  00000-0 0    00
2 42058  63.4482 290.5621 0105000 178.2961 181.7039 13.40735085    08
Epoch (UTC): 15 October 2017 18:59:41
Eccentricity: 0.0105000
inclination: 63.4482°
perigee height: 1028 km
apogee height: 1185 km
right ascension of ascending node: 290.5621°
argument of perigee: 178.2961°
revolutions per day: 13.40735085
mean anomaly at epoch: 181.7039°
orbit number at epoch: 0

The dashed part of the orbit path shows where the satellite is in the earth's shadow,  

DLR